Location: St. Louis
(38.6270°N, 90.1994°W)
Time: 16:56:42
(UTC-06:00)

Tiros 1 - Pass Details

Date: 03 December 2021
Orbit: 629 x 664 km, 48.4° (Epoch: 26 January)

Event Time Altitude Azimuth Distance (km) Brightness Sun altitude
Rises 18:50:14 0° 245° (WSW) 2,911 11.8 -24.9°
Reaches altitude 10° 18:52:34 10° 249° (WSW) 2,009 10.7 -25.4°
Enters shadow 18:56:56 62° 314° (NW) 714 7.4 -26.2°
